This is the latest recevied weather packets stored in our database for station/object EA4GRN-10. If no packets are shown the sender has not sent any weather packets the latest 10 day(s).
| Time | Temp. | Humidity | Pressure | Rain* | Wind** | Luminosity | Snow |
|---|---|---|---|---|---|---|---|
| 1787433329 | 29.44° C | 39% | 1027.1 hPa | - | - | - | - |
| 1787432429 | 29.44° C | 39% | 1027.1 hPa | - | - | - | - |
| 1787431529 | 29.44° C | 40% | 1026.9 hPa | - | - | - | - |
| 1787430629 | 30° C | 40% | 1026.8 hPa | - | - | - | - |
| 1787429729 | 30° C | 41% | 1026.5 hPa | - | - | - | - |
| 1787428829 | 30° C | 40% | 1026.3 hPa | - | - | - | - |
| 1787427928 | 30° C | 40% | 1026 hPa | - | - | - | - |
| 1787427028 | 30° C | 40% | 1025.9 hPa | - | - | - | - |
| 1787426128 | 30° C | 40% | 1025.8 hPa | - | - | - | - |
| 1787425228 | 30° C | 41% | 1025.6 hPa | - | - | - | - |
| 1787424328 | 30° C | 41% | 1025.5 hPa | - | - | - | - |
| 1787423428 | 30° C | 41% | 1025.4 hPa | - | - | - | - |
| 1787422527 | 30° C | 41% | 1025.4 hPa | - | - | - | - |
| 1787421627 | 30.56° C | 41% | 1025.5 hPa | - | - | - | - |
| 1787420727 | 30.56° C | 41% | 1025.6 hPa | - | - | - | - |
| 1787419827 | 30.56° C | 41% | 1025.6 hPa | - | - | - | - |
| 1787418927 | 30.56° C | 42% | 1025.6 hPa | - | - | - | - |
| 1787418027 | 31.67° C | 46% | 1025.6 hPa | - | - | - | - |
| 1787417126 | 31.67° C | 45% | 1025.6 hPa | - | - | - | - |
| 1787416226 | 31.11° C | 40% | 1025.6 hPa | - | - | - | - |
| 1787415325 | 30.56° C | 40% | 1025.6 hPa | - | - | - | - |
| 1787414425 | 30.56° C | 41% | 1025.6 hPa | - | - | - | - |
| 1787413528 | 30.56° C | 43% | 1025.7 hPa | - | - | - | - |
| 1787412628 | 30.56° C | 41% | 1025.8 hPa | - | - | - | - |
| 1787411728 | 30.56° C | 41% | 1025.7 hPa | - | - | - | - |
* Rain since midnight (hover to see other rain measurements)
** Current wind speed in m/s (hover to see current wind gust speed)